Address 0x991120121ab743f6393ca83951801e910afc95cb

 
 
Txn Hash Method
Block
From
To
Value [Txn Fee]
0x05adaf6e1bab40ad74a1685b1a9a65a4e06e82e414a4332395b8cf6fb8132288Transfer119927292021-10-22 12:27:342 days 12 hrs ago0x991120121ab743f6393ca83951801e910afc95cbOUT0xd3463ae20c5ef2c1f645896240931283818627ed0.019 BNB0.000105
0x02c5853928bdf46b029c5f3cfa9f1dd5946b49bdb74c0b1d6f7f99c592e13573Transfer119927192021-10-22 12:27:042 days 12 hrs ago0x991120121ab743f6393ca83951801e910afc95cbOUT Binance: BUSD Stablecoin0 BNB0.000105635
0x63e0561b583026b5c9d63ec321e9c900f79c14c4dc790dbaf95eab2969a16bfaSwap Exact Token...119927102021-10-22 12:26:372 days 12 hrs ago0x991120121ab743f6393ca83951801e910afc95cbOUT PancakeSwap: Router v20 BNB0.0005475
0x4c63e88de4bb1e5c27017d4bebf629388a043dc6c97b56418ce8d4152d6496dcCreate Sale Auct...119780922021-10-21 23:46:523 days 1 hr ago0x991120121ab743f6393ca83951801e910afc95cbOUT 0x5ab19e7091dd208f352f8e727b6dcc6f8abb62750 BNB0.00077288
0x90430c038963d5017d227ac318a63da2bca02d7cb707ebd6b78026ad70bec5770x44ddc37b119357512021-10-20 11:56:434 days 13 hrs ago0x991120121ab743f6393ca83951801e910afc95cbOUT 0x5c50d79adc20630aef122ed2cf953e377cddd0f40 BNB0.00140437
0xac0ec8b9638014d79710825207a8fa7e0d380185b20dca56dfe094f198e82ea5Swap Exact Token...119357352021-10-20 11:55:554 days 13 hrs ago0x991120121ab743f6393ca83951801e910afc95cbOUT PancakeSwap: Router v20 BNB0.000602905
0x0a90aea04a0b128b2763bf4b464fbc712d29370c6fd38bab2be875fbb4c06317Transfer119357072021-10-20 11:54:314 days 13 hrs ago0xd3463ae20c5ef2c1f645896240931283818627ed IN 0x991120121ab743f6393ca83951801e910afc95cb0.02 BNB0.000105
0x5ecec52b21e6434a137bef6d42a8d2b6ee94fd78c8ea36a37c72d53f234797b7Transfer118481062021-10-17 9:58:367 days 15 hrs ago0x991120121ab743f6393ca83951801e910afc95cbOUT0xd3463ae20c5ef2c1f645896240931283818627ed0.016022 BNB0.000105
0x8d6dc7994b162faeaa775a46e7c2125b95bf8588a3f436bb809687252566010dTransfer118480962021-10-17 9:58:067 days 15 hrs ago0x991120121ab743f6393ca83951801e910afc95cbOUT Binance: BUSD Stablecoin0 BNB0.000105695
0x76684342883d2d483c163415f34e4bfc917f3f2641adad225ab143bfbac1b24eSwap Exact Token...118480872021-10-17 9:57:397 days 15 hrs ago0x991120121ab743f6393ca83951801e910afc95cbOUT PancakeSwap: Router v20 BNB0.00060786
0x9c52a96253e914717fed55ad081db34ac260c18a883bd115d75b96fd09c7baddCreate Sale Auct...118480222021-10-17 9:54:247 days 15 hrs ago0x991120121ab743f6393ca83951801e910afc95cbOUT 0x5ab19e7091dd208f352f8e727b6dcc6f8abb62750 BNB0.00077288
0xeea90e4b55df078ac1ffee9e7681775197ff0d75a529f1a26a0ae45bc0013e07Transfer118443472021-10-17 6:50:397 days 18 hrs ago0x991120121ab743f6393ca83951801e910afc95cbOUT Binance: BUSD Stablecoin0 BNB0.000105695
0xd8d8d58a9397dae4836145fd0ad380862f5d50e50ca196d60f308dc5b51cc445Swap Exact Token...118443382021-10-17 6:50:127 days 18 hrs ago0x991120121ab743f6393ca83951801e910afc95cbOUT PancakeSwap: Router v20 BNB0.00054744
0x47f6ed2b5f26c5ff06f1231aaa7250b7a9d17343ce113ace3a9502c28efc34d3Create Sale Auct...118437172021-10-17 6:19:097 days 19 hrs ago0x991120121ab743f6393ca83951801e910afc95cbOUT 0x5ab19e7091dd208f352f8e727b6dcc6f8abb62750 BNB0.000848
0x3bdec8e5b22844ed6dd733587226ede592bd167b92b25a9182d185840cfc34aa0x44ddc37b117606602021-10-14 8:50:1510 days 16 hrs ago0x991120121ab743f6393ca83951801e910afc95cbOUT 0x5c50d79adc20630aef122ed2cf953e377cddd0f40 BNB0.00132937
0x3d7908745d37fc75ab3f5bb8c3c0721287c18a053dea4057713d911e92c898500xb6ace2fd117606262021-10-14 8:48:3310 days 16 hrs ago0x991120121ab743f6393ca83951801e910afc95cbOUT 0x5c50d79adc20630aef122ed2cf953e377cddd0f40 BNB0.00034448
0x9ee7fd9ff3428f06a9bab89e2ab8479f795db1d8b14f7c530e2925b07c02b827Transfer117604522021-10-14 8:39:5110 days 16 hrs ago0xd3463ae20c5ef2c1f645896240931283818627ed IN 0x991120121ab743f6393ca83951801e910afc95cb0.015 BNB0.000105
0xeffe3ba363341f92bef6573ed444d179a1afd731d8ea1ebbaa10a03266eb3770Transfer114971552021-10-05 3:36:1719 days 21 hrs ago0x991120121ab743f6393ca83951801e910afc95cbOUT Binance: BUSD Stablecoin0 BNB0.000105695
0xa2db945fc6532b92acbd7a725cdaa20ca525ca9b3e1f740a1fc3f2342c9c1cc8Swap Exact Token...114971402021-10-05 3:35:3219 days 21 hrs ago0x991120121ab743f6393ca83951801e910afc95cbOUT PancakeSwap: Router v20 BNB0.0005475
0x084eaff781da7699a09f341bd796794824932703b72ea706f6226d90d9660d82Create Sale Auct...114934322021-10-05 0:29:4620 days 56 mins ago0x991120121ab743f6393ca83951801e910afc95cbOUT 0x5ab19e7091dd208f352f8e727b6dcc6f8abb62750 BNB0.00013012
0xb81e9e1caef85588431ddd10c9000fd0a09cdb758a52019a41a0d92a0e252093Create Sale Auct...114933582021-10-05 0:26:0420 days 1 hr ago0x991120121ab743f6393ca83951801e910afc95cbOUT 0x5ab19e7091dd208f352f8e727b6dcc6f8abb62750 BNB0.00013012
0x7c2b9b566a451fa46079c644fc3323e6dde69926605bd0b33dfe5bfcd0bd807aCreate Sale Auct...114931362021-10-05 0:14:5820 days 1 hr ago0x991120121ab743f6393ca83951801e910afc95cbOUT 0x5ab19e7091dd208f352f8e727b6dcc6f8abb62750 BNB0.00052048
0xa000b2015fdd091f8a8384d25307b3c093f99c590c1eace92d36eeb98f7a0880Create Sale Auct...114931202021-10-05 0:14:1020 days 1 hr ago0x991120121ab743f6393ca83951801e910afc95cbOUT 0x5ab19e7091dd208f352f8e727b6dcc6f8abb62750 BNB0.00026024
0x2dd08eaeaba2a31377696db00c7a35884d8c258b5f95f1ea15b0108ecb8792cbCreate Sale Auct...114931062021-10-05 0:13:2820 days 1 hr ago0x991120121ab743f6393ca83951801e910afc95cbOUT 0x5ab19e7091dd208f352f8e727b6dcc6f8abb62750 BNB0.00013012
0x84e5c23035ede7c61ae1b9157691277dbf1d4a5a7b93505aaceeaa7d813833aeCreate Sale Auct...114930962021-10-05 0:12:5820 days 1 hr ago0x991120121ab743f6393ca83951801e910afc95cbOUT 0x5ab19e7091dd208f352f8e727b6dcc6f8abb62750 BNB0.00013012
[ Download CSV Export 
Latest 2 internal transactions
Parent Txn Hash Block From To Value
0xd279bbc643f10a632784e2bcd1da04a3b09537068771a6b09094b2bd065724d2113221282021-09-29 0:34:1826 days 52 mins ago PancakeSwap: Router v20x991120121ab743f6393ca83951801e910afc95cb0.016538468174167625 BNB
0xab840b05209cc441e71b6579a5138340b3317728d390d4f0133e0e496024dddd109850602021-09-17 5:51:2137 days 19 hrs ago PancakeSwap: Router v20x991120121ab743f6393ca83951801e910afc95cb0.000428763939023574 BNB
[ Download CSV Export 
Loading

Contract Name:
0 BNB

Compiler Version
0

Optimization Enabled:
0 BNB

Other Settings:
-NA-
Block Transaction Gas Used Reward
Age Block Fee Address BC Fee Address Voting Power Jailed Incoming
Block Uncle Number Difficulty Gas Used Reward
Loading
Loading
Make sure to use the "Vote Down" button for any spammy posts, and the "Vote Up" for interesting conversations.